#timestamp,LO_Frequency,Hit,StdDev 
1590501615.8,286047000.4,N
1590501635.6,286047001.6,P
1590501655.4,286047005.8,P
1590501675.3,286047005.6,N
1590501695.1,286047003.6,N
1590501715.8,286047001.4,N
1590501735.7,286047001.3,N
1590501755.5,286047004.1,N
1590501775.4,286047003.7,N
1590501795.2,286047005.3,N
1590501815.0,286047005.2,N
1590501815.9,286047005.2,N
1590501835.8,286047002.1,N
1590501855.6,286047004.2,N
1590501875.5,286047001.7,N
1590501895.3,286047003.7,N
1590501915.1,286047005.2,Y
1590501935.9,286047004.3,P
1590501955.7,286047004.2,P
1590501975.5,286047003.2,P
1590501995.4,286047002.3,Y
1590502015.2,286046998.7,P
1590502035.1,286047000.4,N
1590502036.0,286047000.4,N
1590502055.8,286047000.8,N
1590502075.7,286047000.9,N
1590502095.5,286046998.6,N
1590502115.3,286046999.5,N
1590502135.2,286046999.5,N
1590502155.0,286046998.9,N
1590502155.9,286046998.9,N
1590502175.7,286047000.0,N
1590502195.6,286046998.2,N
1590502215.4,286046998.9,N
1590502235.3,286046998.3,N
1590502255.1,286046998.2,N
1590502256.0,286046998.2,N
1590502275.8,286047000.6,N
1590502295.7,286046996.9,N
1590502315.5,286046998.0,N
1590502335.4,286046997.4,N
1590502355.2,286047001.1,N
1590502375.0,286046998.7,N
1590502375.9,286046998.7,N
1590502395.8,286046998.3,N
1590502415.6,286047001.1,N
1590502435.4,286047002.7,N
1590502455.3,286046999.8,N
1590502475.1,286047002.3,N
1590502495.9,286047001.8,N
1590502515.7,286047002.3,N
1590502535.5,286047000.4,N
1590502555.4,286047000.1,N
1590502575.2,286047002.1,N
1590502595.0,286047001.1,N
1590502596.0,286047001.1,N
1590502615.8,286046999.0,N
1590502635.6,286047001.7,N
1590502655.5,286047006.8,Y
1590502675.3,286047003.2,P
1590502695.1,286047002.9,N
1590502715.9,286047001.5,N
1590502735.7,286047002.0,N
1590502755.6,286047000.1,N
1590502775.4,286047002.8,N
1590502795.2,286047002.2,N
1590502815.1,286047002.2,N
1590502816.0,286047002.2,N
1590502835.8,286047008.3,Y
1590502855.7,286047005.5,P
1590502875.5,286047003.7,N
1590502895.3,286047002.5,N
1590502915.2,286047000.2,N
1590502935.0,286046999.9,N
1590502935.9,286046999.9,N
1590502955.7,286047002.8,N
1590502975.6,286047000.8,N
1590502995.4,286047001.8,N
1590503015.3,286047001.7,N
1590503035.1,286047001.5,N
1590503055.9,286047003.1,N
1590503075.7,286047003.7,N
1590503095.5,286047001.6,N
1590503115.4,286046999.7,N
1590503135.2,286047001.9,N
1590503155.0,286047001.4,N
1590503155.9,286047001.4,N
1590503175.8,286047002.1,N
1590503195.6,286047004.0,N
1590503215.5,286047005.5,Y
1590503235.3,286047001.4,P
1590503255.1,286047001.7,P
1590503275.9,286047002.6,P
1590503295.7,286047001.2,N
1590503315.6,286046999.8,N
1590503335.4,286046998.4,N
1590503355.2,286047001.0,N
1590503375.1,286046999.7,N
1590503376.0,286046999.7,N
1590503395.8,286047002.1,N
1590503415.6,286047000.7,N
1590503435.5,286046999.5,N
1590503455.3,286046998.9,N
1590503475.2,286047001.2,N
1590503495.9,286046999.7,N
1590503515.7,286046999.9,N
1590503535.6,286047002.3,N
1590503555.4,286047001.9,N
1590503575.2,286046999.9,N
1590503595.1,286046999.7,N
1590503596.0,286046999.7,N
1590503615.8,286046999.0,N
1590503635.7,286046999.3,N
1590503655.5,286046997.9,N
1590503675.3,286046997.2,N
1590503695.2,286046998.1,N
1590503715.0,286047001.0,N
1590503715.9,286047001.0,N
1590503735.8,286046999.4,N
1590503755.6,286047001.0,N
1590503775.4,286046998.9,N
1590503795.3,286046998.6,N
1590503815.1,286047002.3,N
1590503835.9,286047002.3,N
1590503855.7,286047002.6,N
1590503875.5,286047001.6,N
1590503895.4,286047001.4,N
1590503915.2,286047001.5,N
1590503935.0,286047000.9,N
1590503935.9,286047000.9,N
1590503955.8,286047001.1,N
1590503975.6,286046998.1,N
1590503995.5,286047000.4,N
1590504015.3,286046998.1,N
1590504035.1,286046998.9,N
1590504055.9,286046998.4,N
1590504075.7,286047001.1,N
1590504095.6,286046999.8,N
1590504115.4,286047000.6,N
1590504135.2,286047001.2,N
1590504155.1,286047000.8,N
1590504156.0,286047000.8,N
1590504175.8,286046996.8,N
1590504195.6,286046996.5,N
1590504215.5,286046996.8,N
1590504235.3,286046998.0,N
1590504255.2,286046999.6,N
1590504275.0,286046996.6,N
1590504275.9,286046996.6,N
1590504295.7,286046999.2,N
1590504315.6,286046997.8,N
1590504335.4,286046997.0,N
1590504355.3,286046999.5,N
1590504375.1,286046998.8,N
1590504395.8,286046997.3,N
1590504415.7,286046999.3,N
1590504435.5,286046997.5,N
1590504455.4,286046999.2,N
1590504475.2,286046999.1,N
1590504495.0,286046998.5,N
1590504495.9,286046998.5,N
1590504515.8,286046998.3,N
1590504535.6,286046998.6,N
1590504555.5,286047000.1,N
1590504575.3,286046998.3,N
1590504595.1,286046999.3,N
1590504615.9,286046998.2,N
1590504635.7,286047000.8,N
1590504655.5,286046999.2,N
1590504675.4,286046998.3,N
1590504695.2,286047001.2,N
1590504715.1,286046999.0,N
1590504716.0,286046999.0,N
1590504735.8,286046998.7,N
1590504755.6,286046998.7,N
1590504775.5,286046996.5,Y
1590504795.3,286047000.9,P
1590504815.2,286047000.5,N
1590504835.9,286047000.5,N
1590504855.7,286046999.7,N
1590504875.6,286047002.8,Y
1590504895.4,286047004.4,P
1590504915.3,286047004.3,N
1590504935.1,286047001.9,N
1590504936.0,286047001.9,N
1590504955.8,286046999.8,N
1590504975.7,286046998.5,N
1590504995.5,286047001.8,N
1590505015.3,286047004.2,N
1590505035.2,286047001.8,N
1590505055.0,286047001.4,N
1590505055.9,286047001.4,N
1590505075.8,286047001.6,N
1590505095.6,286047002.1,N
1590505115.4,286047003.5,N
1590505135.3,286047003.8,N
1590505155.1,286047004.1,N
1590505175.9,286047005.2,Y
1590505195.7,286047000.8,P
